Regional Weather Roundup
Issued by NWS Northern Indiana

Home | Current Version | Previous Version | Graphics & Text | Print | Product List | Glossary On
Versions: 1 2 3 4 5 6 7 8 9 10 11 12 13 14 15 16 17 18 19 20 21 22 23 24 25 26 27 28 29 30 31 32 33 34 35 36 37 38 39 40 41 42 43 44 45 46 47 48 49 50
000
ASUS43 KIWX 300500
RWRIWX

KIWX WEATHER ROUNDUP
NATIONAL WEATHER SERVICE NORTHERN INDIANA
1200 AM EST FRI JAN 30 2015

NOTE: "FAIR" INDICATES FEW OR NO CLOUDS BELOW 12,000 FEET WITH NO
SIGNIFICANT WEATHER AND/OR OBSTRUCTIONS TO VISIBILITY.

* THESE STATIONS ARE NOT UNDER NWS QUALITY CONTROL. THEY ALSO MAY NOT
  REPORT WEATHER SUCH AS PRECIPITATION OR FOG.

INZ001>027-300600-
NORTHERN INDIANA

CITY           SKY/WX    TMP DP  RH WIND       PRES   REMARKS
SOUTH BEND     NOT AVBL
GOSHEN         FLURRIES  32  25  75 N25G31    30.17R WCI  19
ANGOLA*        CLOUDY    30  27  86 NW12      30.12R WCI  21
FORT WAYNE     FLURRIES  33  27  78 W12       30.15R WCI  24
PERU/GRISSOM   CLOUDY    33  25  73 NW15      30.19R WCI  22

$$
INZ028>050-300600-
CENTRAL INDIANA

CITY           SKY/WX    TMP DP  RH WIND       PRES   REMARKS
LAFAYETTE      CLOUDY    33  26  75 NW13      30.25R WCI  24
KOKOMO*        CLOUDY    34  25  69 NW16G22   30.20R WCI  23
MUNCIE*        CLOUDY    32  28  85 NW12      30.18R WCI  23
INDIANAPOLIS   CLOUDY    31  25  78 NW13G22   30.24R WCI  21

$$
MIZ043>046-050>051-056>058-064>065-071>073-077>080-300600-
SOUTHWEST LOWER MICHIGAN

CITY           SKY/WX    TMP DP  RH WIND       PRES   REMARKS
BATTLE CREEK   LGT SNOW  28  21  75 N17G24    30.15R WCI  16
BENTON HARBOR  FLURRIES  29  23  78 N12G23    30.23R WCI  19
COLDWATER*     FLURRIES  29  24  81 NW17G25   30.13R WCI  17
HILLSDALE*     LGT SNOW  28  26  89 N12G21    30.09R WCI  18
HOLLAND        CLOUDY    27  13  55 N10G24    30.24R WCI  17
GRAND RAPIDS   FLURRIES  23  13  65 NW17G28   30.21R WCI   9
KALAMAZOO      LGT SNOW  27  22  81 N24       30.18R WCI  12
STURGIS*       CLOUDY    30  21  69 NW13G22   30.15R WCI  20
THREE RIVERS*  FLURRIES  31  22  71 N13G22    30.17R WCI  21

$$
OHZ001>008-015>018-024>025-300600-
NORTHWEST OHIO

CITY           SKY/WX    TMP DP  RH WIND       PRES   REMARKS
DEFIANCE       FLURRIES  32  27  81 W7        30.12R WCI  26
FINDLAY        CLOUDY    33  27  78 NW12      30.09R WCI  24
TOLEDO EXPRESS CLOUDY    31  22  69 NW12      30.09R WCI  22
TOLEDO METCALF CLOUDY    32  21  64 NW12G21   30.10R WCI  23
LIMA           CLOUDY    33  26  75 NW14      30.10R WCI  23

$$
AND FOR LAKE MICHIGAN COASTAL AND OPEN LAKE BUOY OBSERVATIONS

STATION/POSITION TEMP    WIND        PRES    VSBY  WAVE
                 AIR SEA DIR/SP/G                  HT/PER
                 (F)     (DEG/KT/KT) (MB)    (MI)  (FT/S)
CALUMET HARBOR    35     310/ 10/ 19   N/A
MICHIGAN CITY     34     330/ 22/ 25   N/A
SAINT JOSEPH      31     330/ 17/ 25 1023.0R

$$
&&



USA.gov is the U.S. government's official web portal to all federal, state and local government web resources and services.